PISAT

Last updated on Thu Nov 21 2024 00:03:26 GMT+0000 (Coordinated Universal Time)

1 41784U 16059B 24325.48295720 .00001890 00000+0 34394-3 0 9991 2 41784 97.8260 340.3909 0028799 234.9834 124.8667 14.66946163435567
UTC large
Height (km)
Speed (km/s)
/
Latitude / Longitude
Inclination (degrees)
Orbital Period (minutes)
Azimuth
Elevation
Range (km)
Doppler Factor

Next 0 passes for location: London (51.5072 / 0.1276)

Sorry there are no passes over London.